Location: Berlin
(38.3226°N, 75.2177°W)
Time: 22:24:11
(UTC+00:00)

ALOS - Pass Details

Date: 26 October 2020
Orbit: 683 x 685 km, 97.9° (Epoch: 25 November)

Event Time Altitude Azimuth Distance (km) Brightness Sun altitude
Rises 08:49:46 0° 25° (NNE) 3,054 6.0 -30.3°
Reaches altitude 10° 08:52:18 10° 37° (NE) 2,133 5.3 -29.8°
Maximum altitude 08:56:17 27° 96° (E) 1,293 4.2 -29.0°
Drops below altitude 10° 09:00:14 10° 154° (SSE) 2,120 5.0 -28.2°
Sets 09:02:45 0° 166° (SSE) 3,031 5.7 -27.7°
